Find Starlink 36313

NORAD ID: 68156 Int'l Des: 2026-049 Owner: SPXS Country: US Constellation: starlink operational
LEOCIRCULARRETROGRADE

当前视图

正在加载3D地球...

About Starlink 36313

Starlink 36313 (NORAD 68156) is a starlink constellation satellite (v2 mini) launched Mar 13, 2026 by SPXS of US. It operates in LEO, CIRCULAR, RETROGRADE orbit with a mass of 575.00 kg.

关于 Starlink 36313

正在加载描述...

即将过境

Passes for default location (London). Set your location on the main map for personalized predictions.

高度历史

Loading altitude history...

两行轨道根数

1 68156U 26049Q 26164.81027194 .00017426 00000-0 54100-3 0 9991
2 68156 97.2827 186.1244 0001950 82.1228 278.0236 15.33435717 14379
Epoch: Jun 13, 2026 • Age: 10 hours

当前状态

高度 472.5 km
速度 7.63 km/s
星下点 -15.55°S, 16.59°E
发射日期 Mar 13, 2026
运行时间 0.2 years
类型 internet

技术详情

分类 Payload
质量 575.00 kg
干质量 530.00 kg
总质量 575.00 kg
长度 0.30 m
直径 4.10 m
跨度 29.00 m
形状 Box + pan
制造商 SPXS
平台类型 Starlink V2MO
阶段状态 In Orbit
所有者/国家 SPXS/US

Most Searched